Voltar ao catálogo

STARLINK-4675

AtivoComunicaçõesVLEO
NORAD 53601·PAYLOAD·🇺🇸 United States

Lançado Aug 28, 2022 de Cape Canaveral Space Force Station

Loading…

Próximas Passagens (próximas 24 horas)

TLE

AtualizadoSource: CelesTrak SupGP

Época: Sep 14, 2026, 22:18 UTC

1 53601C 22104P   26257.92965278  .00021520  00000+0  61578-3 0  2570
2 53601  53.1571  99.8132 0001219  80.6629 339.2252 15.35383247    13

Acompanhe STARLINK-4675 em tempo real com AllMySat

Download on the App Store